Tracking 20083 objects as of 12-Dec-2019
HD Live streaming from Space Station
objects crossing your sky now

DELTA 1 DEB

Track DELTA 1 DEB now!
10-day predictions


NORAD ID: 37662
Int'l Code: 1978-026JZ
Perigee: 828.6 km
Apogee: 880.5 km
Inclination: 98.9 °
Period: 101.9 minutes
Semi major axis: 7225 km
RCS: 0.0109 m2 (small)
Launch date: March 5, 1978
Source: United States (US)
Launch site: AIR FORCE WESTERN TEST RANGE (AFWTR)

Note: This is SATELLITE DEBRIS
aabbcc
Your satellite tracking list
Your tracking list is empty




NASA's NSSDC Master Catalog

Two Line Element Set (TLE):
1 37662U 78026JZ  19345.19871665 +.00000087 +00000-0 +69490-4 0  9999
2 37662 098.8778 314.8855 0035897 358.3601 001.7448 14.13500211330193
Source of the keplerian elements: AFSPC